Meteo Giornale » Osservazioni meteo Gran Bretagna » Londra City AP

ore: 13:20 - Osservazioni Meteo Londra City AP
Lat. 51° 30' N Lon. 0° 30' W Alt. 5 metri s.l.m.

sereno Europe/London

24 °C

Sereno

Temp. 24 Ore

12 °C

24 °C

Est

22.2 Km/h

Dew point 8 °C

Umidità 35 %

Visibilità  10 Km

Il sole sorge alle ore 04:47

Il sole tramonta alle ore 21:12

Data e Ora Cielo e Fenomeni T °C DP °C Um. % Pres. hPa Vis. km Vento km/h
Oggi h: 13:20 sereno Sereno 24 8 35 1022 10 E 22.2
Oggi h: 12:50 sereno Sereno 24 7 33 1022 10 E 22.2
Oggi h: 12:20 sereno Sereno 23 7 35 1022 10 E 20.3
Oggi h: 11:50 sereno Sereno 23 9 40 1023 10 E 18.5
Oggi h: 11:20 sereno Sereno 21 9 46 1023 10 E 16.7
Oggi h: 10:20 sereno Sereno 20 10 52 1023 10 E/NE 11.1
Oggi h: 09:50 sereno Sereno 19 10 55 1023 10 E/NE 14.8
Oggi h: 09:20 sereno Sereno 18 11 63 1023 10 E/NE 11.1
Oggi h: 08:50 sereno Sereno 17 10 63 1023 10 N/NE 7.4
Oggi h: 08:20 sereno Sereno 16 10 67 1023 10 E/NE 11.1
Oggi h: 07:20 sereno Sereno 14 10 76 1023 10 N/NE 7.4
Oggi h: 06:50 sereno Sereno 13 9 76 1023 10 NE 7.4
Oggi h: 06:20 sereno Sereno 13 9 76 1023 10 N 5.5
Oggi h: 05:50 sereno Sereno 12 9 81 1023 10 N 5.5
Oggi h: 04:50 sereno Sereno 12 8 76 1023 10 N 5.5
Oggi h: 04:20 sereno Sereno 12 8 76 1023 10 N 5.5
Oggi h: 03:50 sereno Sereno 12 8 76 1023 10 N 7.4
Oggi h: 03:20 sereno Sereno 12 8 76 1023 10 N 7.4
Oggi h: 02:50 sereno Sereno 13 8 71 1023 10 N 5.5
Oggi h: 02:20 sereno Sereno 13 8 71 1023 10 N 7.4
Oggi h: 01:50 sereno Sereno 14 8 67 1023 10 NE 7.4
Oggi h: 01:20 sereno Sereno 14 8 67 1023 10 E/NE 11.1
Oggi h: 00:50 sereno Sereno 14 7 62 1024 10 NE 13
Oggi h: 00:20 sereno Sereno 15 7 58 1024 10 NE 13
Ieri h: 23:50 sereno Sereno 16 7 55 1024 10 E/NE 13
Ieri h: 23:20 sereno Sereno 16 6 51 1024 10 E/NE 11.1
Ieri h: 22:50 sereno Sereno 17 6 48 1023 10 NE 11.1
Ieri h: 21:50 sereno Sereno 17 7 51 1023 10 E/NE 18.5
Ieri h: 21:20 sereno Sereno 18 7 48 1023 10 E/NE 16.7
Ieri h: 20:50 sereno Sereno 18 7 48 1023 10 E 22.2
Ieri h: 19:50 sereno Sereno 19 7 45 1023 10 E/NE 25.9
Ieri h: 19:20 sereno Sereno 19 5 39 1023 10 E 31.5
Ieri h: 18:50 sereno Sereno 20 6 39 1023 10 E 31.5
Ieri h: 18:20 sereno Sereno 20 6 39 1022 10 E 31.5
Ieri h: 17:50 sereno Sereno 20 6 39 1022 10 E 31.5
Ieri h: 16:50 sereno Sereno 21 6 37 1023 10 E 33.3
Ieri h: 15:50 sereno Sereno 22 5 32 1023 10 E 33.3
Ieri h: 15:20 sereno Sereno 23 5 31 1023 10 E 27.8
Ieri h: 14:50 sereno Sereno 22 6 35 1022 10 E 31.5
Ieri h: 14:20 sereno Sereno 23 5 31 1023 10 E 25.9
Ieri h: 13:50 sereno Sereno 23 4 28 1023 10 E/SE 31.5